Location: Brno
(49.2000°N, 16.6330°E)
Time: 08:55:25
(UTC+01:00)

BREEZE M DEB (TANK) - Visible Passes

Search period start: 25 February 2018 00:00
Search period end: 07 March 2018 00:00
Orbit: 288 x 11961 km, 49.5° (Epoch: 23 February)

Date Brightness Start Highest point End Pass type
(mag) Time Alt. Az. Time Alt. Az. Time Alt. Az.
25 Feb 1.3 05:00:10 67° E 05:00:10 67° E 05:02:10 10° E visible
26 Feb 4.7 04:11:30 12° E 04:11:30 12° E 04:11:43 10° E visible
01 Mar 1.0 05:37:20 19° W 05:38:42 83° N 05:41:23 10° E visible
02 Mar 1.4 04:48:38 62° ENE 04:48:38 62° ENE 04:50:35 10° E visible
03 Mar 4.7 03:59:55 12° E 03:59:55 12° E 04:00:06 10° E visible
06 Mar 1.0 05:25:39 20° W 05:26:58 85° S 05:29:41 10° E visible
